Zurück zum Katalog

STARLINK-35453

AktivKommunikationVLEO
NORAD 65878·PAYLOAD·🇺🇸 United States

Gestartet Oct 3, 2025 von Vandenberg Space Force Base

Loading…

Nächste Überflüge (nächste 24 Stunden)

TLE

AktuellSource: CelesTrak SupGP

Epoche: Sep 14, 2026, 22:39 UTC

1 65878C 25223AA  26257.94423611 -.00054350  00000+0 -16058-2 0  2577
2 65878  53.1561 131.4497 0001110  93.1577 241.8342 15.34418069    17

Verfolge STARLINK-35453 in Echtzeit mit AllMySat

Download on the App Store